EW0478 Weather Reports


time (UTC)temp
F
wind
direction
speed
knots
gust
knots
rain 1hr
in
rain 24hr
in
rain mn
in
humidity
%
barometer
mb
20260503192703 60 350 4.3 12.2 0.00 0.00 0.00 35 1008.0
20260503192016 60 320 1.7 11.3 0.00 0.00 0.00 34 1008.3
20260503191511 59 291 1.7 7.0 0.00 0.00 0.00 33 1008.3
20260503190903 59 318 2.6 9.6 0.00 0.00 0.00 36 1008.1
20260503190004 59 312 3.5 11.3 0.00 0.00 0.00 32 1008.6
20260503185403 60 283 4.3 12.2 0.00 0.00 0.00 35 1008.3
20260503184505 59 194 1.7 7.0 0.00 0.00 0.00 35 1008.5
20260503184503 60 309 2.6 6.1 0.00 0.00 0.00 35 1008.4
20260503183603 59 305 2.6 10.4 0.00 0.00 0.00 34 1008.7
20260503183008 58 289 2.6 10.4 0.00 0.00 0.00 34 1008.8
20260503182703 58 311 2.6 7.0 0.00 0.00 0.00 37 1008.8
20260503181803 57 313 3.5 9.6 0.00 0.00 0.00 38 1008.8
20260503181508 57 312 2.6 9.6 0.00 0.00 0.00 40 1008.9
20260503180903 56 333 3.5 13.9 0.00 0.00 0.00 40 1008.9
20260503180011 56 360 3.5 13.0 0.00 0.00 0.00 39 1008.9
20260503180003 56 335 3.5 14.8 0.00 0.00 0.00 39 1008.8
20260503175403 57 296 1.7 6.1 0.00 0.00 0.00 40 1008.9
20260503174717 56 330 2.6 9.6 0.00 0.00 0.00 41 1008.8
20260503174503 55 306 1.7 8.7 0.00 0.00 0.00 41 1009.0
20260503173817 56 339 3.5 11.3 0.00 0.00 0.00 42 1009.0
20260503173009 56 267 3.5 10.4 0.00 0.00 0.00 39 1009.1
20260503172703 57 319 1.7 6.1 0.00 0.00 0.00 42 1009.2
20260503171803 55 297 1.7 5.2 0.00 0.00 0.00 46 1009.2
20260503171508 54 310 0.9 5.2 0.00 0.00 0.00 43 1009.4
20260503171117 55 326 1.7 7.0 0.00 0.00 0.00 44 1009.3
20260503170218 55 313 2.6 9.6 0.00 0.00 0.00 41 1009.3
20260503150903 50 341 2.6 9.6 0.00 0.00 0.00 50 1009.9
20260503131117 48 349 4.3 10.4 0.00 0.00 0.00 57 1009.9
20260503081522 45 341 0.0 2.6 0.00 0.00 0.00 58 1007.5
20260503081118 46 7 1.7 6.1 0.00 0.00 0.00 58 1007.4
20260503072703 47 357 1.7 6.1 0.00 0.00 0.00 57 1007.2
20260503071803 47 345 0.9 4.3 0.00 0.00 0.00 58 1007.3
20260503071511 46 352 0.0 3.5 0.00 0.00 0.00 58 1007.4
20260503070903 47 346 0.9 4.3 0.00 0.00 0.00 57 1007.3
20260503054717 48 350 0.9 2.6 0.00 0.00 0.00 55 1007.6
20260503054522 48 10 0.0 2.6 0.00 0.00 0.00 56 1007.7
20260503053603 48 351 0.9 3.5 0.00 0.00 0.00 55 1007.6
20260503053010 48 6 0.0 4.3 0.00 0.00 0.00 55 1007.7
20260503052703 49 344 0.9 5.2 0.00 0.00 0.00 55 1007.7
20260503051803 49 346 0.9 4.3 0.00 0.00 0.00 55 1007.6
20260503051506 48 350 0.0 2.6 0.00 0.00 0.00 55 1007.7
20260503050903 49 343 0.9 3.5 0.00 0.00 0.00 54 1007.6
20260503050008 48 7 0.0 5.2 0.00 0.00 0.00 54 1007.9
20260503050003 49 351 0.9 3.5 0.00 0.00 0.00 54 1007.7
20260503045617 49 345 0.9 4.3 0.00 0.00 0.00 54 1007.8
20260503044510 49 350 0.9 4.3 0.00 0.00 0.00 53 1008.0
20260503044503 49 341 0.9 5.2 0.00 0.00 0.00 53 1007.8
20260503043603 49 344 0.9 5.2 0.00 0.00 0.00 54 1007.9
20260503043009 49 332 0.9 5.2 0.00 0.00 0.00 54 1008.0
20260503042917 49 345 0.9 5.2 0.00 0.00 0.00 54 1007.8
20260503041803 49 343 0.9 3.5 0.00 0.00 0.00 54 1008.0
20260503041510 49 9 0.0 4.3 0.00 0.00 0.00 54 1008.1
20260503040903 49 351 0.9 3.5 0.00 0.00 0.00 53 1008.1
20260503040017 49 4 0.9 3.5 0.00 0.00 0.00 53 1008.2
20260503040005 49 340 0.9 2.6 0.00 0.00 0.00 53 1008.1
20260503035403 49 338 0.9 4.3 0.00 0.00 0.00 53 1008.1
20260503034615 49 316 0.0 2.6 0.00 0.00 0.00 54 1008.1
20260503034503 50 339 0.9 4.3 0.00 0.00 0.00 53 1008.0
20260503033818 50 341 0.9 4.3 0.00 0.00 0.00 52 1008.0
20260503033005 49 315 0.0 5.2 0.00 0.00 0.00 53 1008.1
20260503032703 50 342 0.9 5.2 0.00 0.00 0.00 52 1007.9
20260503031804 50 345 0.9 2.6 0.00 0.00 0.00 52 1007.9
20260503031510 50 360 0.0 3.5 0.00 0.00 0.00 53 1008.1
20260503030903 50 341 0.9 3.5 0.00 0.00 0.00 52 1008.0
20260503030012 50 332 0.0 2.6 0.00 0.00 0.00 52 1008.2
20260503030003 50 343 0.9 2.6 0.00 0.00 0.00 52 1008.0
20260503025403 50 346 0.9 2.6 0.00 0.00 0.00 51 1008.0
20260503024505 50 331 0.0 3.5 0.00 0.00 0.00 51 1008.2
20260503024503 50 350 0.9 3.5 0.00 0.00 0.00 51 1008.1
20260503023603 51 344 0.9 3.5 0.00 0.00 0.00 51 1008.1
20260503023009 51 336 0.0 3.5 0.00 0.00 0.00 52 1008.2
20260503022703 51 337 0.9 3.5 0.00 0.00 0.00 51 1008.1
20260503021803 52 339 0.9 3.5 0.00 0.00 0.00 50 1008.1
20260503021515 51 310 0.0 3.5 0.00 0.00 0.00 50 1008.2
20260503021117 52 349 0.9 5.2 0.00 0.00 0.00 51 1008.0
20260503020217 52 345 0.0 5.2 0.00 0.00 0.00 52 1008.0
20260503020007 51 21 0.0 2.6 0.00 0.00 0.00 52 1008.1
20260503015403 52 347 0.0 2.6 0.00 0.00 0.00 52 1008.0
20260503014510 51 333 0.0 3.5 0.00 0.00 0.00 51 1008.2
20260503014503 52 341 0.9 3.5 0.00 0.00 0.00 51 1008.0
20260503013603 52 331 0.0 1.7 0.00 0.00 0.00 53 1008.0
20260503013010 51 326 0.0 0.9 0.00 0.00 0.00 53 1008.1
20260503012703 52 6 0.0 0.9 0.00 0.00 0.00 51 1008.1
20260503011803 52 349 0.0 0.9 0.00 0.00 0.00 51 1008.0
20260503011519 52 331 0.0 0.9 0.00 0.00 0.00 51 1008.1
20260503010903 52 339 0.0 0.9 0.00 0.00 0.00 50 1007.9
20260503010009 52 333 0.0 1.7 0.00 0.00 0.00 50 1008.0
20260503010003 52 331 0.0 1.7 0.00 0.00 0.00 50 1007.8
20260503005403 52 284 0.0 0.9 0.00 0.00 0.00 51 1007.7
20260503004515 52 284 0.0 0.9 0.00 0.00 0.00 49 1007.7
20260503004503 53 329 0.0 1.7 0.00 0.00 0.00 49 1007.6
20260503003603 53 348 0.0 1.7 0.00 0.00 0.00 50 1007.5
20260503003011 53 320 0.0 1.7 0.00 0.00 0.00 49 1007.6
20260503002703 54 350 0.0 1.7 0.00 0.00 0.00 49 1007.5
20260503001803 54 351 0.0 1.7 0.00 0.00 0.00 49 1007.3
20260503001504 54 341 0.0 0.9 0.00 0.00 0.00 50 1007.4
20260503001117 54 348 0.0 0.9 0.00 0.00 0.00 49 1007.2
20260503000008 54 331 0.0 0.9 0.00 0.00 0.00 47 1007.4
20260503000003 55 323 0.0 0.9 0.00 0.00 0.00 47 1007.3
20260502235403 55 320 0.0 0.9 0.00 0.00 0.00 46 1007.2
20260502234522 55 303 0.0 1.7 0.00 0.00 0.00 45 1007.2
20260502234503 55 302 0.0 1.7 0.00 0.00 0.00 45 1007.1
20260502233603 56 11 0.0 0.9 0.00 0.00 0.00 45 1007.1
20260502233006 56 10 0.0 4.3 0.00 0.00 0.00 43 1007.2
20260502232917 56 344 0.9 4.3 0.00 0.00 0.00 44 1007.1
20260502231803 56 344 0.9 3.5 0.00 0.00 0.00 43 1007.1
20260502231509 56 341 0.9 2.6 0.00 0.00 0.00 44 1007.3
20260502230903 57 328 0.0 2.6 0.00 0.00 0.00 43 1007.1
20260502230103 57 289 0.0 1.7 0.00 0.00 0.00 44 1007.1
20260502230003 57 349 0.0 2.6 0.00 0.00 0.00 44 1007.1
20260502225403 57 1 0.0 3.5 0.00 0.00 0.00 43 1007.0
20260502224718 58 355 0.0 2.6 0.00 0.00 0.00 42 1006.9
20260502224506 57 2 0.0 1.7 0.00 0.00 0.00 41 1007.1
20260502223603 58 338 0.0 1.7 0.00 0.00 0.00 41 1006.9
20260502223010 58 338 0.0 2.6 0.00 0.00 0.00 41 1006.9
20260502222703 59 341 0.0 2.6 0.00 0.00 0.00 40 1006.8
20260502221803 60 305 0.0 3.5 0.00 0.00 0.00 39 1006.8
20260502221603 60 257 0.0 3.5 0.00 0.00 0.00 39 1006.8
20260502220903 62 290 0.0 3.5 0.00 0.00 0.00 37 1006.8
20260502220217 62 333 0.9 6.1 0.00 0.00 0.00 38 1006.8
20260502220011 62 292 0.0 5.2 0.00 0.00 0.00 37 1006.9
20260502215403 63 331 0.0 2.6 0.00 0.00 0.00 39 1006.8
20260502214531 61 343 0.0 5.2 0.00 0.00 0.00 38 1007.0
20260502214503 62 318 0.9 6.1 0.00 0.00 0.00 38 1006.9
20260502213603 61 340 0.9 3.5 0.00 0.00 0.00 39 1006.8
20260502213006 60 297 0.0 3.5 0.00 0.00 0.00 40 1006.8
20260502212703 60 6 0.9 4.3 0.00 0.00 0.00 40 1006.7
20260502211803 60 333 1.7 4.3 0.00 0.00 0.00 41 1006.6
20260502211515 60 341 0.9 4.3 0.00 0.00 0.00 40 1006.7
20260502210903 60 344 1.7 7.0 0.00 0.00 0.00 39 1006.6
20260502210022 61 336 1.7 6.1 0.00 0.00 0.00 39 1006.7
20260502210004 62 346 1.7 7.0 0.00 0.00 0.00 39 1006.6
20260502205618 62 340 0.9 5.2 0.00 0.00 0.00 37 1006.4
20260502204510 62 13 0.0 4.3 0.00 0.00 0.00 40 1006.6
20260502204503 62 321 0.9 3.5 0.00 0.00 0.00 40 1006.5
20260502203603 61 324 1.7 3.5 0.00 0.00 0.00 39 1006.6
20260502203012 60 9 0.9 5.2 0.00 0.00 0.00 41 1006.7
20260502202703 61 339 1.7 6.1 0.00 0.00 0.00 40 1006.7
20260502201803 60 326 0.9 5.2 0.00 0.00 0.00 42 1006.9
20260502201509 60 310 0.0 4.3 0.00 0.00 0.00 43 1006.9
20260502201117 60 355 1.7 8.7 0.00 0.00 0.00 40 1006.9
20260502200012 61 295 1.7 5.2 0.00 0.00 0.00 39 1007.0
20260502200003 62 344 0.9 6.1 0.00 0.00 0.00 39 1006.9
20260502195403 62 325 1.7 4.3 0.00 0.00 0.00 43 1006.9
20260502194604 62 233 0.0 4.3 0.00 0.00 0.00 39 1007.2
20260502194503 62 274 0.9 4.3 0.00 0.00 0.00 39 1007.1
20260502193603 62 344 1.7 5.2 0.00 0.00 0.00 40 1007.2
20260502193104 61 312 1.7 7.0 0.00 0.00 0.00 41 1007.4